Location: Albany
(35.0170°S, 117.8920°E)
Time: 18:50:33
(UTC+08:00)

SR - Pass Details

Date: 22 January 2021
Orbit: 573 x 882 km, 66.7° (Epoch: 25 February)

Event Time Altitude Azimuth Distance (km) Brightness Sun altitude
Rises 03:01:33 0° 215° (SW) 2,855 ? -23.2°
Reaches altitude 10° 03:03:55 10° 222° (SW) 1,924 ? -22.8°
Enters shadow 03:05:44 23° 235° (SW) 1,277 ? -22.6°
